TimeCST,TemperatureF,Dew PointF,Humidity,Sea Level PressureIn,VisibilityMPH,Wind Direction,Wind SpeedMPH,Gust SpeedMPH,PrecipitationIn,Events,Conditions,WindDirDegrees,DateUTC
12:15 AM,39.2,30.2,70,30.10,10.0,SW,13.8,-,N/A,,Clear,220,2013-01-09 06:15:00
12:35 AM,38.3,29.8,72,30.11,10.0,SW,11.5,-,N/A,,Clear,220,2013-01-09 06:35:00
12:55 AM,37.4,30.0,75,30.12,10.0,SW,11.5,-,N/A,,Clear,220,2013-01-09 06:55:00
1:15 AM,36.9,30.2,77,30.13,10.0,SW,10.4,-,N/A,,Clear,230,2013-01-09 07:15:00
1:35 AM,37.0,31.3,80,30.14,10.0,SW,9.2,-,N/A,,Clear,230,2013-01-09 07:35:00
1:55 AM,37.6,32.0,80,30.15,10.0,West,12.7,-,N/A,,Clear,260,2013-01-09 07:55:00
2:15 AM,38.3,32.2,79,30.16,10.0,West,12.7,-,N/A,,Clear,260,2013-01-09 08:15:00
2:35 AM,37.0,32.0,82,30.17,10.0,WSW,13.8,-,N/A,,Clear,250,2013-01-09 08:35:00
2:55 AM,37.4,32.2,81,30.18,10.0,WSW,12.7,-,N/A,,Clear,250,2013-01-09 08:55:00
3:15 AM,37.0,32.0,82,30.19,10.0,West,12.7,-,N/A,,Clear,260,2013-01-09 09:15:00
3:35 AM,36.7,32.0,83,30.20,10.0,West,11.5,-,N/A,,Clear,260,2013-01-09 09:35:00
3:55 AM,36.3,32.0,84,30.20,10.0,West,11.5,-,N/A,,Clear,260,2013-01-09 09:55:00
4:15 AM,36.1,32.0,85,30.21,10.0,WSW,12.7,-,N/A,,Clear,250,2013-01-09 10:15:00
4:35 AM,35.6,32.0,87,30.22,10.0,West,11.5,-,N/A,,Clear,260,2013-01-09 10:35:00
4:55 AM,35.2,32.0,88,30.22,10.0,WSW,13.8,-,N/A,,Clear,250,2013-01-09 10:55:00
5:15 AM,35.4,31.8,87,30.23,10.0,WSW,11.5,-,N/A,,Clear,250,2013-01-09 11:15:00
5:35 AM,34.3,31.6,90,30.23,10.0,WSW,10.4,-,N/A,,Clear,250,2013-01-09 11:35:00
5:55 AM,34.3,31.5,89,30.25,10.0,West,9.2,-,N/A,,Clear,260,2013-01-09 11:55:00
6:15 AM,33.6,31.1,90,30.25,10.0,West,10.4,-,N/A,,Clear,260,2013-01-09 12:15:00
6:35 AM,32.9,31.1,93,30.26,10.0,WSW,6.9,-,N/A,,Clear,250,2013-01-09 12:35:00
6:55 AM,33.3,31.1,92,30.28,10.0,WSW,6.9,-,N/A,,Clear,250,2013-01-09 12:55:00
7:15 AM,32.9,30.9,92,30.29,10.0,West,4.6,-,N/A,,Clear,260,2013-01-09 13:15:00
7:35 AM,32.0,30.2,93,30.31,10.0,WSW,8.1,-,N/A,,Clear,240,2013-01-09 13:35:00
7:55 AM,32.9,30.7,92,30.32,10.0,West,6.9,-,N/A,,Clear,270,2013-01-09 13:55:00
8:15 AM,33.8,30.2,87,30.33,10.0,West,6.9,-,N/A,,Clear,260,2013-01-09 14:15:00
8:35 AM,33.8,31.3,90,30.33,10.0,WSW,8.1,-,N/A,,Clear,240,2013-01-09 14:35:00
8:55 AM,34.9,31.8,89,30.34,10.0,West,9.2,-,N/A,,Clear,270,2013-01-09 14:55:00
9:15 AM,36.9,32.0,83,30.35,10.0,West,9.2,-,N/A,,Clear,270,2013-01-09 15:15:00
9:35 AM,36.7,32.0,83,30.37,10.0,West,9.2,-,N/A,,Clear,280,2013-01-09 15:35:00
9:55 AM,36.7,32.0,83,30.38,10.0,West,8.1,-,N/A,,Clear,270,2013-01-09 15:55:00
10:15 AM,38.3,32.7,80,30.38,10.0,West,9.2,-,N/A,,Clear,270,2013-01-09 16:15:00
10:35 AM,38.7,33.1,80,30.39,10.0,West,10.4,-,N/A,,Clear,270,2013-01-09 16:35:00
10:55 AM,39.6,33.8,80,30.41,10.0,West,9.2,-,N/A,,Clear,270,2013-01-09 16:55:00
11:35 AM,43.5,35.8,74,30.41,10.0,WNW,13.8,-,N/A,,Clear,290,2013-01-09 17:35:00
11:55 AM,44.6,35.6,71,30.39,10.0,WNW,10.4,-,N/A,,Clear,290,2013-01-09 17:55:00
12:15 PM,45.0,36.1,71,30.39,10.0,NW,10.4,-,N/A,,Clear,310,2013-01-09 18:15:00
12:35 PM,45.5,35.8,69,30.40,10.0,NW,10.4,-,N/A,,Clear,310,2013-01-09 18:35:00
12:55 PM,46.0,36.1,68,30.39,10.0,NW,11.5,-,N/A,,Clear,310,2013-01-09 18:55:00
1:15 PM,46.9,35.8,65,30.40,10.0,NW,11.5,-,N/A,,Clear,310,2013-01-09 19:15:00
1:35 PM,47.3,33.8,59,30.40,10.0,NW,12.7,17.3,N/A,,Clear,310,2013-01-09 19:35:00
1:55 PM,47.3,34.2,60,30.40,10.0,NW,9.2,-,N/A,,Clear,320,2013-01-09 19:55:00
2:15 PM,47.5,34.2,60,30.41,10.0,NW,10.4,-,N/A,,Clear,320,2013-01-09 20:15:00
2:35 PM,47.7,34.5,60,30.41,10.0,NW,10.4,-,N/A,,Clear,320,2013-01-09 20:35:00
2:55 PM,47.5,33.4,58,30.42,10.0,NW,6.9,-,N/A,,Clear,320,2013-01-09 20:55:00
3:15 PM,46.9,35.1,63,30.43,10.0,NNW,5.8,-,N/A,,Clear,330,2013-01-09 21:15:00
3:35 PM,46.6,35.4,65,30.44,10.0,NW,5.8,-,N/A,,Clear,320,2013-01-09 21:35:00
3:55 PM,45.5,34.2,65,30.44,10.0,NW,8.1,-,N/A,,Clear,320,2013-01-09 21:55:00
4:15 PM,44.4,33.1,64,30.45,10.0,NW,4.6,-,N/A,,Clear,320,2013-01-09 22:15:00
4:35 PM,41.9,34.2,74,30.44,10.0,Calm,Calm,-,N/A,,Clear,0,2013-01-09 22:35:00
4:55 PM,40.3,33.8,78,30.45,10.0,Calm,Calm,-,N/A,,Clear,0,2013-01-09 22:55:00
5:15 PM,37.9,32.5,81,30.45,10.0,Calm,Calm,-,N/A,,Clear,0,2013-01-09 23:15:00
5:35 PM,35.6,32.0,87,30.45,10.0,Calm,Calm,-,N/A,,Clear,0,2013-01-09 23:35:00
5:55 PM,36.0,32.0,86,30.46,10.0,Calm,Calm,-,N/A,,Clear,0,2013-01-09 23:55:00
6:15 PM,34.9,31.5,87,30.47,10.0,SSE,3.5,-,N/A,,Clear,160,2013-01-10 00:15:00
6:35 PM,35.1,31.8,88,30.47,10.0,Calm,Calm,-,N/A,,Clear,0,2013-01-10 00:35:00
6:55 PM,33.3,31.1,92,30.47,10.0,Calm,Calm,-,N/A,,Clear,0,2013-01-10 00:55:00
7:15 PM,32.7,31.5,95,30.48,10.0,Calm,Calm,-,N/A,,Clear,0,2013-01-10 01:15:00
7:35 PM,33.3,31.5,93,30.49,10.0,Calm,Calm,-,N/A,,Clear,0,2013-01-10 01:35:00
7:55 PM,33.8,32.0,93,30.49,10.0,Calm,Calm,-,N/A,,Clear,0,2013-01-10 01:55:00
8:15 PM,33.8,32.0,93,30.49,10.0,Calm,Calm,-,N/A,,Clear,0,2013-01-10 02:15:00
8:35 PM,31.5,29.8,94,30.49,10.0,Calm,Calm,-,N/A,,Clear,0,2013-01-10 02:35:00
8:55 PM,31.1,30.0,96,30.49,10.0,Calm,Calm,-,N/A,,Clear,0,2013-01-10 02:55:00
9:15 PM,32.0,30.9,96,30.49,10.0,Calm,Calm,-,N/A,,Clear,0,2013-01-10 03:15:00
9:35 PM,30.2,30.2,100,30.50,10.0,Calm,Calm,-,N/A,,Clear,0,2013-01-10 03:35:00
9:55 PM,30.6,29.8,97,30.50,10.0,South,3.5,-,N/A,,Clear,190,2013-01-10 03:55:00
10:15 PM,30.7,30.0,97,30.51,10.0,South,3.5,-,N/A,,Clear,170,2013-01-10 04:15:00
10:35 PM,30.7,29.8,96,30.51,10.0,SSE,3.5,-,N/A,,Clear,150,2013-01-10 04:35:00
10:55 PM,30.2,30.2,100,30.51,10.0,Calm,Calm,-,N/A,,Clear,0,2013-01-10 04:55:00
11:15 PM,30.4,29.8,98,30.50,10.0,Calm,Calm,-,N/A,,Clear,0,2013-01-10 05:15:00
11:35 PM,29.5,28.9,98,30.49,10.0,East,4.6,-,N/A,,Clear,90,2013-01-10 05:35:00
11:55 PM,30.0,29.3,97,30.48,10.0,ENE,5.8,-,N/A,,Clear,70,2013-01-10 05:55:00